Weather History for Sisseton, SD

Change the Weather History Date:

Sunday, July 27, 2014

  Actual Average Record
Temperature  
Mean Temperature 63 °F 72 °F  
Max Temperature 70 °F 83 °F 103 °F (1959)
Min Temperature 56 °F 60 °F 46 °F (2013)
Degree Days  
Heating Degree Days 2 0  
Month to date heating degree days 17 3  
Since 1 June heating degree days 52 65  
Since 1 July heating degree days 17 3  
Cooling Degree Days 0 7  
Month to date cooling degree days 127 178  
Year to date cooling degree days 276 295  
Since 1 June cooling degree days 215 272  
Growing Degree Days 12 (Base 50)    
Moisture  
Dew Point 56 °F    
Average Humidity 84    
Maximum Humidity 100    
Minimum Humidity 68    
Precipitation  
Precipitation 0.00 in 0.10 in 1.63 in (1991)
Month to date precipitation 1.74 3.16  
Year to date precipitation 18.78 13.88  
Sea Level Pressure  
Sea Level Pressure 30.03 in    
Wind  
Wind Speed 16 mph (NNW)    
Max Wind Speed 26 mph    
Max Gust Speed 34 mph    
T = Trace of Precipitation, MM = Missing Value Source: NWS Daily Summary

Daily Weather History Graph

Daily Weather History Graph

Search for Another Location

Airport:

Trip Planner

Search our weather history database for the weather conditions in past years. The results will help you decide how hot, cold, wet, or windy it might be!

Date:

Astronomy

Jul. 27, 2014 Rise Set
Actual Time 6:05 AM CDT 9:02 PM CDT
Civil Twilight 5:30 AM CDT 9:37 PM CDT
Nautical Twilight 4:45 AM CDT 10:21 PM CDT
Astronomical Twilight 3:52 AM CDT 11:14 PM CDT
Moon 6:59 AM CDT (7/27) 9:05 PM CDT (7/27)
Length of Visible Light 16h 06m
Length of Day
14h 56m
New Moon, 1% of the Moon is Illuminated
Jul 27
New Moon
Aug 3
First Quarter
Aug 10
Full
Aug 17
Last Quarter
Aug 25
New

Hourly Weather History & Observations

Time (CDT) Temp. Dew Point Humidity Pressure Visibility Wind Dir Wind Speed Gust Speed Precip Events Conditions
12:56 AM 66.9 °F 55.0 °F 66% 29.81 in - NW 18.4 mph 26.5 mph N/A   Unknown
1:56 AM 64.9 °F 55.9 °F 73% 29.83 in - NW 12.7 mph - N/A   Unknown
2:56 AM 64.0 °F 57.0 °F 78% 29.83 in - NW 16.1 mph 27.6 mph N/A   Unknown
3:56 AM 62.1 °F 57.0 °F 84% 29.85 in - NNW 16.1 mph - N/A   Unknown
4:56 AM 61.0 °F 57.0 °F 87% 29.86 in - NNW 18.4 mph 26.5 mph N/A   Unknown
5:56 AM 60.1 °F 55.9 °F 86% 29.89 in - NNW 17.3 mph - N/A   Unknown
6:56 AM 62.1 °F 55.9 °F 80% 29.91 in - NNW 20.7 mph 34.5 mph N/A   Unknown
7:56 AM 62.1 °F 55.9 °F 80% 29.95 in - NNW 19.6 mph 25.3 mph N/A   Unknown
8:56 AM 63.0 °F 57.0 °F 81% 29.98 in - NNW 19.6 mph 27.6 mph N/A   Unknown
9:56 AM 64.0 °F 57.0 °F 78% 30.01 in - North 23.0 mph 31.1 mph N/A   Unknown
10:56 AM 64.9 °F 57.0 °F 75% 30.03 in - NNW 23.0 mph 32.2 mph N/A   Unknown
11:56 AM 64.9 °F 55.9 °F 73% 30.06 in - NNW 20.7 mph 28.8 mph N/A   Unknown
12:56 PM 64.9 °F 57.0 °F 75% 30.07 in - NNW 19.6 mph 24.2 mph N/A   Unknown
1:56 PM 66.9 °F 57.9 °F 73% 30.08 in - NNW 23.0 mph 27.6 mph N/A   Unknown
2:56 PM 66.9 °F 57.0 °F 70% 30.10 in - North 17.3 mph - N/A   Unknown
3:56 PM 66.9 °F 57.0 °F 70% 30.12 in - North 18.4 mph - N/A   Unknown
4:56 PM 64.9 °F 57.0 °F 75% 30.13 in - North 13.8 mph - N/A   Unknown
5:56 PM 66.9 °F 57.9 °F 73% 30.14 in - North 16.1 mph - N/A   Unknown
6:56 PM 68.0 °F 57.0 °F 68% 30.14 in - North 17.3 mph 23.0 mph N/A   Unknown
7:56 PM 66.0 °F 55.9 °F 70% 30.14 in - North 11.5 mph - N/A   Unknown
8:56 PM 64.9 °F 55.9 °F 73% 30.15 in - North 9.2 mph - N/A   Unknown
9:56 PM 60.1 °F 55.9 °F 86% 30.17 in - NNW 6.9 mph - N/A   Unknown
10:56 PM 57.0 °F 55.9 °F 96% 30.18 in - North 6.9 mph - N/A   Unknown
11:56 PM 55.9 °F 55.0 °F 97% 30.19 in - NNW 5.8 mph - N/A   Unknown